weather.gov     
National Weather Service

Regional Weather Roundup
NWS Homepage
This page is being discontinued on March 12, 2014.
The same data is available at this site. Please update your bookmarks.
Thank you, and we apologize for the inconvenience.
Please send an email to SR-SRH.Webmaster@noaa.gov with any concerns.


Current Version
Previous Version:    01  02  03  04  05  06  07  08  09  10  11  12  13  14  15  16  17  18  19  20  21  22  23  24  25  26  
[Printable]
693
ASUS44 KMEG 021710
RWRTN
TENNESSEE HOURLY STATE WEATHER ROUNDUP
NATIONAL WEATHER SERVICE MEMPHIS TN
1200 PM CDT TUE SEP 02 2014

TNZ002-004-019-021-049-052-054-088>092-021800-
WEST TENNESSEE

CITY           SKY/WX    TMP DP  RH WIND       PRES   REMARKS
MEMPHIS INTL   PTSUNNY   84  74  71 SW10      30.04F HX  91
NWS MEMPHIS      N/A     83 N/A N/A MISG        N/A
JACKSON        PTSUNNY   84  75  74 SW10      30.03S HX  92
DYERSBURG      PTSUNNY   84  70  61 S8        30.00F
UNION CITY     SUNNY     82  75  78 S10       29.96F
PARIS          MOSUNNY   82  73  74 SW15      30.00F
HUNTINGDON     PTSUNNY   82  74  77 W8        30.02F
LEXINGTON      PTSUNNY   82  73  74 W8        30.03S
SAVANNAH       SUNNY     88  75  66 SW9       30.05F HX  97
$$

TNZ008-025-027-028-033-062-065-066-021800-
NORTH MIDDLE TENNESSEE

CITY           SKY/WX    TMP DP  RH WIND       PRES   REMARKS
NASHVILLE      PTSUNNY   89  72  56 SW9G17    30.03F HX  96
DICKSON        MOSUNNY   86  73  66 SW10      30.03F HX  93
PORTLAND       PTSUNNY   86  72  62 SW13      30.02F HX  92
CLARKSVILLE    CLOUDY    84  74  71 SW7       29.99F HX  91
LEBANON        PTSUNNY   88  73  60 SW12      30.02  HX  95
SMYRNA         PTSUNNY   87  73  62 W12       30.04F HX  94
MURFREESBORO   MOSUNNY   89  71  55 SW9       30.03F HX  95
COOKEVILLE     SUNNY     88  73  62 SW12      30.07F HX  96
LIVINGSTON     MOSUNNY   84  70  63 SW10      30.07F
GALLATIN       MOSUNNY   89  75  63 SW9       30.03F HX  98
CROSSVILLE     SUNNY     84  68  58 SW9       30.13F
$$

TNZ061-075-076-078-094-096-097-021800-
SOUTH MIDDLE TENNESSEE

CITY           SKY/WX    TMP DP  RH WIND       PRES   REMARKS
LEWISBURG      SUNNY     88  73  60 SW10      30.05F HX  95
FAYETTEVILLE   MOSUNNY   84  72  65 S8        30.09F
TULLAHOMA      MOSUNNY   86  72  62 SW12      30.10S HX  92
WINCHESTER     SUNNY     88  72  58 SW9       30.09F HX  94
MCMINNVILLE    SUNNY     88  73  62 SW12      30.08F HX  96
COLUMBIA       PTSUNNY   90  75  62 S10       30.03F HX 100
SHELBYVILLE    PTSUNNY   90  75  62 SW12      30.07F HX 100
$$

TNZ017-018-042-046-047-021800-
NORTHEAST TENNESSEE

CITY           SKY/WX    TMP DP  RH WIND       PRES   REMARKS
TRI CITIES     MOSUNNY   85  69  58 W9        30.12F
ELIZABETHTON   PTSUNNY   84  70  61 W5        30.12F
$$

TNZ012-013-036-069-073-074-021800-
CENTRAL EAST TENNESSEE

CITY           SKY/WX    TMP DP  RH WIND       PRES   REMARKS
KNOXVILLE      MOSUNNY   84  71  65 SW12      30.08F
OAK RIDGE      SUNNY     86  71  60 SW6       30.09F HX  91
GATLINBURG     MOSUNNY   88  70  55 SW10      30.08F HX  92
MORRISTOWN     SUNNY     86  72  62 SW10      30.11F HX  92
$$

TNZ083-085-099-021800-
SOUTHEAST TENNESSEE

CITY           SKY/WX    TMP DP  RH WIND       PRES   REMARKS
CHATTANOOGA    MOSUNNY   89  70  53 VRB7      30.09F HX  94
$$

SKY/WX REPORTED AS FAIR MEANS FEW OR NO CLOUDS BELOW
12 THOUSAND FEET.





U.S. Dept. of Commerce
NOAA National Weather Service
1325 East West Highway
Silver Spring, MD 20910
E-mail: w-nws.webmaster@noaa.gov
Page last modified: May 16, 2007
NATIONAL WEATHER SERVICE: for Safety, for Work, for Fun - FOR LIFE